GFSNE_925_spd_231.txt.gz
Wind_Speed
20 19 19 19 20 19 19 18 11 2 3 9 6 10 13 18 23 24 22 20 20 17 16 18 19 19 18 18 19 19 18 18 20 20 21 21 21 21
23 22 22 22 21 19 18 19 20 20 4 10 8 11 14 19 18 23 21 17 16 20 18 17 18 19 20 19 20 20 20 19 19 21 23 22 21 22
25 25 25 23 23 21 18 18 20 21 11 19 17 17 16 22 25 21 22 21 20 18 18 18 18 19 20 20 21 20 20 20 20 20 22 21 20 21
26 25 28 26 27 27 26 24 24 23 25 16 24 23 28 20 24 22 22 24 25 22 20 20 19 20 21 21 22 21 21 20 20 20 20 20 18 18
24 25 27 27 28 27 28 29 24 21 23 22 22 22 22 21 20 18 21 23 23 24 22 23 21 23 24 24 23 24 22 21 20 20 20 19 18 17
20 21 23 24 26 26 26 28 28 21 18 20 22 25 24 24 22 23 24 21 22 25 25 24 24 25 23 24 25 25 25 23 22 20 20 20 20 18
15 15 18 20 21 21 23 26 25 25 22 19 17 18 20 21 20 25 27 27 23 19 24 29 29 27 27 24 25 24 27 26 25 23 23 22 22 20
17 17 18 18 20 21 22 22 27 25 24 18 16 16 21 22 27 28 27 21 7 34 31 35 31 30 26 23 22 23 26 26 26 27 28 25 24 22
16 17 17 17 16 18 19 21 22 22 27 25 24 23 21 27 28 27 28 22 21 21 20 26 27 25 24 23 25 28 29 27 25 26 27 27 26 24
18 17 18 16 14 13 15 19 22 24 23 24 29 35 34 31 28 28 25 26 26 27 24 15 24 22 19 18 19 21 21 25 23 23 24 25 26 24
16 15 15 14 9 11 13 17 22 19 18 22 25 27 26 30 31 26 22 17 11 16 28 22 15 18 18 22 23 22 23 24 23 24 23 22 23 23
14 13 11 8 8 10 12 13 17 20 20 21 22 26 26 24 26 31 23 20 14 5 18 20 19 14 5 14 20 19 20 21 21 23 24 23 22 24
9 6 4 7 10 11 13 15 16 18 21 20 24 26 26 28 25 26 32 29 21 21 18 20 15 21 15 7 8 7 10 14 18 22 25 24 24 25
7 5 8 11 13 14 13 13 13 16 15 15 17 19 20 24 26 28 27 32 36 36 25 28 26 22 17 11 12 22 22 21 20 19 21 23 25 26
8 10 12 13 14 15 13 13 13 12 13 15 17 18 19 22 25 28 28 25 31 34 34 33 30 26 27 22 13 20 20 19 21 22 22 22 22 25
11 14 15 14 13 13 13 11 10 11 13 14 17 21 21 23 23 23 25 25 25 28 32 36 36 35 29 30 26 24 24 14 14 18 19 19 20 24
16 13 12 13 13 12 13 12 12 14 15 17 18 20 21 22 24 23 25 23 21 20 23 29 33 35 36 31 22 28 26 26 26 19 17 18 20 21
6 8 10 12 12 13 13 14 14 16 17 19 19 19 21 21 23 23 24 25 26 25 24 26 23 19 19 26 35 24 26 29 29 24 20 17 19 20
15 14 11 11 14 14 14 16 18 19 18 14 17 19 23 25 24 23 24 25 26 26 28 26 26 21 10 11 12 31 26 29 27 21 21 18 19 20
17 18 18 19 19 19 20 19 21 22 20 19 19 20 22 23 25 25 25 23 25 28 25 26 26 26 17 14 10 22 26 28 26 27 24 21 21 16
19 19 18 20 19 19 21 22 23 22 21 23 22 22 25 23 23 25 28 28 30 29 22 24 32 33 26 15 6 7 19 24 27 28 25 23 17 15
20 19 18 17 19 19 22 22 22 22 23 24 26 26 29 24 23 25 30 27 26 29 30 27 25 29 26 25 15 9 11 12 28 25 22 25 13 7
19 17 18 19 18 21 23 22 23 22 22 25 26 28 29 26 28 24 29 30 29 29 28 17 26 30 27 27 24 14 15 18 20 24 32 29 28 17

GFSNE_925_spd_234.txt.gz
Wind_Speed
26 23 22 22 20 21 22 21 12 3 3 10 9 12 13 11 9 15 19 18 17 20 18 17 18 19 19 17 17 17 16 16 17 19 19 19 19 18
25 25 23 23 23 21 21 21 23 15 5 8 12 18 18 14 11 9 13 18 17 15 17 19 18 17 17 18 18 18 18 18 17 17 19 20 20 20
26 26 26 25 23 22 19 19 22 21 11 16 23 23 24 22 20 21 16 15 19 16 14 14 16 17 16 18 18 18 19 18 18 18 18 19 20 20
26 25 26 25 22 21 21 22 23 23 21 17 19 26 25 25 26 24 19 16 17 17 15 15 16 16 18 19 19 19 20 19 18 19 18 18 18 19
25 26 26 23 21 21 21 21 24 25 25 20 16 20 24 22 21 22 22 17 16 19 18 17 18 19 20 20 21 22 20 22 21 20 19 19 19 18
18 20 20 21 20 22 21 20 20 22 22 19 17 16 19 23 21 19 19 21 21 18 20 21 21 20 20 21 22 23 24 24 25 23 21 19 19 19
16 17 16 16 18 17 19 16 16 18 19 18 16 13 14 13 16 19 24 29 30 29 25 23 19 19 23 24 25 26 25 24 27 27 25 23 21 21
17 18 17 16 16 17 18 18 20 20 18 16 16 14 18 18 21 24 21 15 9 24 30 32 25 26 28 29 28 28 26 23 25 28 27 25 25 23
14 16 16 15 11 14 16 17 18 19 20 20 19 20 19 22 25 22 23 20 21 22 19 23 29 32 32 29 28 27 26 25 23 26 28 26 27 26
16 16 16 16 13 12 12 15 18 17 16 16 20 28 30 28 32 31 25 23 22 25 24 16 19 28 28 25 23 22 21 22 24 28 26 26 27 28
17 15 15 14 11 9 10 12 14 15 12 13 18 21 21 23 28 28 23 15 10 13 21 19 19 23 23 25 25 23 21 22 24 23 25 23 23 26
15 14 14 13 10 6 9 11 13 16 16 16 17 20 24 24 21 28 26 19 13 5 20 20 19 16 6 22 27 25 25 25 27 25 25 24 24 24
17 14 8 3 3 6 10 13 14 15 18 17 17 16 15 18 23 24 23 27 21 21 17 22 16 20 18 6 14 19 16 16 20 22 22 24 26 26
10 4 2 5 7 9 11 12 13 14 15 15 16 15 14 15 18 22 23 23 30 36 22 27 18 23 17 11 13 18 20 19 18 20 21 22 24 24
7 7 6 8 9 11 11 12 13 13 12 12 12 14 13 17 17 20 22 24 28 28 35 30 30 27 24 21 19 15 16 20 21 22 23 23 22 25
12 11 10 8 8 9 10 10 10 12 12 13 14 18 20 21 21 18 20 19 23 26 29 32 39 33 26 28 25 23 20 14 17 23 24 24 25 26
9 7 9 11 11 12 12 12 13 14 15 16 18 18 19 20 21 20 21 21 20 22 21 25 29 32 35 29 24 27 25 21 23 23 20 20 24 25
10 11 10 13 14 15 17 17 16 17 21 19 15 16 17 19 20 22 22 21 22 23 23 24 22 20 22 27 38 28 24 25 22 26 28 21 22 26
17 16 17 17 15 15 16 15 16 18 19 20 18 20 18 21 20 19 20 21 22 25 26 25 23 22 12 12 15 32 30 24 22 23 28 25 19 20
19 17 15 17 16 16 17 17 17 18 18 16 16 17 18 18 19 18 19 21 24 26 26 27 26 27 19 18 13 22 29 29 28 25 22 25 23 17
16 16 16 16 16 16 17 18 18 18 18 19 18 18 18 18 20 20 20 26 28 25 25 27 30 31 35 25 13 14 25 37 34 26 20 19 13 12
13 14 15 16 16 17 18 17 17 18 19 18 20 20 20 20 20 22 23 22 25 26 27 32 31 29 29 24 18 17 18 28 36 27 23 27 17 9
15 16 15 14 14 15 16 17 16 17 17 19 20 23 24 25 23 24 25 25 25 28 27 28 29 28 30 28 26 17 21 26 31 32 26 25 18 14

GFSNE_925_spd_237.txt.gz
Wind_Speed
18 19 20 19 17 16 16 14 14 9 10 12 11 7 8 10 10 8 11 17 17 19 20 18 19 20 22 21 20 21 22 21 20 20 20 20 20 20
24 22 23 21 20 20 19 20 19 18 12 13 14 14 15 18 15 13 10 10 15 18 18 18 18 18 18 22 22 21 21 21 21 20 20 21 22 22
22 22 22 23 24 25 22 16 15 18 17 18 19 17 17 18 17 19 16 15 13 17 19 17 19 22 21 19 21 21 22 21 21 21 22 21 21 22
19 19 20 20 20 23 22 20 19 18 19 19 19 18 17 16 18 20 18 15 15 16 18 19 18 19 20 19 20 21 22 22 22 22 22 23 22 21
16 15 16 18 20 20 20 17 17 18 16 18 20 18 17 16 18 17 18 16 16 15 16 18 19 19 20 20 21 22 23 23 23 24 24 24 24 22
14 15 14 13 14 14 12 15 15 15 13 15 15 16 17 15 13 13 15 17 20 18 17 16 18 20 22 22 23 24 24 25 25 25 27 26 25 23
14 14 14 14 15 14 13 14 14 12 12 11 13 14 16 16 15 13 13 15 17 19 20 21 23 25 25 27 27 26 25 25 25 27 29 30 27 24
15 15 14 15 17 15 16 17 18 17 15 12 13 15 16 16 15 15 14 13 12 16 20 26 23 26 25 25 26 28 27 27 27 28 28 31 30 26
15 15 14 14 14 15 14 14 16 18 18 16 18 19 20 17 16 15 15 14 17 17 13 21 20 25 27 27 33 34 32 31 29 28 27 29 30 27
17 17 16 16 15 14 13 10 9 10 11 14 18 19 19 18 18 19 19 18 16 17 15 18 21 23 24 32 32 33 32 31 30 29 29 27 29 30
18 17 17 17 17 15 12 8 8 8 8 12 14 18 22 23 21 20 16 11 10 15 16 22 22 18 21 26 28 29 33 29 28 27 27 27 29 29
17 17 15 16 16 13 8 6 8 8 8 11 13 13 12 15 18 22 19 16 13 8 20 18 20 14 8 17 23 24 28 30 29 27 26 26 25 29
13 15 8 7 3 3 6 7 9 10 11 10 12 13 13 11 11 12 14 21 17 22 17 20 8 14 14 15 8 17 22 22 27 30 32 30 29 28
8 5 3 3 4 4 7 8 10 12 9 10 12 11 11 11 11 13 14 18 22 28 27 22 18 18 19 16 17 15 14 18 17 17 15 24 29 28
7 8 8 7 6 5 7 8 8 7 7 8 9 11 11 12 14 15 15 16 19 22 24 26 29 26 22 21 15 18 16 18 20 20 19 17 21 26
10 6 6 7 9 8 9 9 9 9 10 10 12 13 14 13 14 15 16 18 19 21 17 20 24 30 28 27 23 23 23 15 19 21 23 22 20 20
10 6 9 11 13 12 11 12 12 12 13 14 13 12 12 14 16 15 17 18 17 20 21 20 19 22 30 32 23 27 28 27 25 21 19 23 24 24
10 15 17 16 14 13 13 11 11 12 13 13 14 13 14 15 16 17 15 15 19 20 19 21 22 19 21 26 36 30 26 28 27 24 23 24 24 23
12 11 12 12 11 10 11 12 12 11 12 12 13 13 13 15 16 17 16 16 19 20 19 20 23 21 11 11 17 27 34 27 26 28 23 26 26 25
11 10 10 10 9 10 12 12 12 12 13 13 14 13 13 15 17 17 17 18 19 20 24 23 19 22 19 17 21 26 28 32 29 29 28 27 24 24
10 9 9 10 10 10 10 10 12 13 13 14 14 14 15 16 17 18 20 22 23 21 20 23 23 26 31 30 23 29 30 35 36 31 27 23 21 21
9 8 8 8 9 11 12 12 12 13 13 14 15 15 17 17 18 20 21 21 23 23 25 26 27 25 26 25 23 28 29 27 34 40 32 29 15 10
8 8 9 10 10 11 12 12 12 13 13 14 16 18 19 21 21 22 23 23 24 25 25 25 26 25 26 26 30 30 30 29 25 32 33 33 28 21

GFSNE_925_spd_240.txt.gz
Wind_Speed
18 18 18 19 21 14 14 14 13 9 9 10 7 7 7 8 9 9 10 12 15 18 23 26 25 21 22 24 22 22 23 24 24 23 22 21 21 19
18 18 18 19 19 15 15 16 15 16 11 16 17 7 11 12 14 15 14 14 13 15 20 24 25 24 24 25 26 25 24 24 25 26 26 25 24 24
19 18 19 21 20 20 16 17 17 16 15 20 20 18 17 17 17 15 15 16 16 17 16 22 23 24 25 24 24 25 27 26 26 26 26 25 25 25
17 18 17 17 16 18 19 19 17 19 19 19 21 19 17 18 18 17 17 18 17 17 19 18 25 23 24 27 27 25 26 27 27 27 27 27 27 26
15 15 16 16 16 15 17 19 19 19 17 20 21 20 20 16 14 17 17 17 18 17 20 21 21 25 25 25 26 27 27 27 27 27 28 28 27 27
16 15 16 15 14 13 14 16 17 19 19 19 19 19 18 18 16 16 16 16 18 20 20 19 18 24 27 27 27 27 28 28 29 28 28 29 29 28
17 16 15 15 16 14 14 15 14 15 15 14 15 17 19 16 13 16 14 15 15 16 17 21 23 21 22 28 30 31 31 31 30 31 31 31 30 30
18 18 17 16 17 16 18 20 20 17 18 17 16 16 16 17 17 15 13 14 12 17 16 19 21 24 24 26 31 34 32 34 33 31 30 30 31 32
18 18 18 17 15 15 16 17 17 16 21 19 20 20 19 18 16 16 15 14 16 15 8 17 17 21 24 27 29 29 32 35 36 32 30 31 31 32
20 18 18 18 17 15 16 15 14 13 14 14 15 16 17 18 16 15 15 18 19 20 17 18 19 23 23 22 24 25 32 36 36 34 34 33 32 32
18 17 17 18 18 18 15 16 14 12 10 9 11 14 17 19 20 17 17 13 12 20 20 22 21 20 21 21 22 28 34 35 36 36 30 33 33 29
14 14 14 14 18 18 15 13 12 10 9 9 12 13 12 11 11 11 14 16 14 11 19 21 20 14 9 9 20 17 20 28 29 31 35 32 31 30
14 12 8 10 5 3 3 4 7 7 10 12 13 13 11 11 11 8 10 14 15 19 18 11 13 15 9 12 16 18 16 20 25 35 38 36 32 30
10 9 10 9 6 4 4 6 8 8 9 11 12 11 11 11 12 12 17 16 17 21 21 17 13 17 17 20 17 16 18 19 23 24 23 29 34 35
9 10 7 5 3 0 9 8 6 6 7 8 10 12 11 11 15 16 16 16 18 20 18 18 22 25 26 20 14 19 19 24 20 27 22 24 19 26
12 9 3 3 8 7 7 9 8 7 6 7 9 10 10 11 13 15 17 18 19 19 17 18 20 19 21 25 24 24 24 17 20 28 26 25 24 22
10 11 12 11 8 8 8 9 7 7 7 7 8 9 10 12 13 13 13 15 15 18 21 18 17 18 19 21 21 24 24 24 30 32 21 25 28 27
7 10 11 10 10 9 9 9 8 8 9 10 10 11 12 13 14 16 15 15 16 18 19 19 18 21 24 21 23 27 25 25 28 28 29 26 28 26
9 8 8 8 8 8 9 9 10 9 10 9 11 12 13 14 15 16 16 16 17 18 20 19 20 21 13 13 24 23 25 26 27 26 31 28 29 29
7 7 7 7 7 8 9 10 10 9 10 11 11 12 13 15 17 17 18 18 19 21 23 22 21 20 14 14 19 29 30 31 27 26 27 31 34 35
7 7 6 7 8 9 9 9 10 10 10 11 11 12 13 15 17 18 19 21 21 22 22 23 23 26 27 26 24 27 27 27 34 32 28 25 26 28
7 7 7 7 8 9 10 10 10 11 11 11 12 14 15 17 19 20 21 22 23 23 25 27 27 25 24 23 22 28 29 27 29 31 34 38 20 8
6 7 7 8 8 9 10 11 11 12 12 14 15 16 18 21 22 22 23 24 25 25 25 26 26 25 24 24 26 26 31 30 28 28 29 34 45 41

GFSNE_925_spd_246.txt.gz
Wind_Speed
19 18 19 23 23 23 21 23 12 3 3 9 10 3 6 13 16 10 18 11 9 16 14 19 24 28 27 27 27 25 25 26 26 26 24 25 24 24
16 17 18 21 21 22 21 17 18 14 5 10 12 15 10 9 13 14 11 14 16 20 19 20 22 24 26 27 29 25 23 27 27 27 27 26 25 24
18 16 16 16 18 22 24 18 18 18 13 20 17 14 12 12 14 15 18 22 24 24 26 27 24 23 25 28 31 31 26 27 27 27 28 28 28 27
19 19 18 16 16 16 18 20 20 23 22 18 18 19 22 16 21 23 24 21 23 26 28 24 27 26 23 25 30 31 30 29 29 29 29 29 30 30
16 19 21 20 16 17 16 18 19 21 20 19 22 18 21 19 18 21 24 28 25 20 23 21 17 25 26 24 25 30 31 31 32 32 33 33 32 32
20 19 22 21 20 20 17 16 18 16 18 19 22 21 18 18 20 19 22 24 27 21 19 17 19 23 26 27 30 29 33 32 32 32 32 32 34 34
19 20 19 22 25 20 21 18 16 14 14 14 15 17 19 18 16 15 18 22 25 21 19 13 25 24 18 21 30 33 32 35 32 33 34 34 33 34
18 18 19 21 20 16 18 17 17 17 16 16 14 12 16 16 18 17 16 16 5 7 13 10 12 21 19 28 20 31 38 36 36 33 33 33 34 35
18 18 16 15 22 18 16 15 15 16 18 21 19 18 16 16 15 17 15 17 15 20 14 20 16 19 14 16 11 39 40 33 30 33 35 35 36 36
17 17 14 15 13 15 18 22 19 17 17 15 16 20 17 16 14 14 15 18 20 21 15 13 18 19 18 25 26 24 28 30 24 28 28 31 37 39
17 14 15 13 14 17 16 15 17 15 12 13 11 12 13 14 15 15 15 12 12 15 14 17 17 15 19 27 24 22 21 21 18 20 28 32 33 36
18 17 15 17 20 15 13 13 14 10 10 9 8 11 17 19 19 17 12 13 13 7 6 12 13 11 7 10 11 9 8 9 12 18 19 20 24 30
18 18 18 21 16 12 10 13 14 14 12 12 17 15 12 17 12 6 5 9 9 16 18 14 9 16 9 11 18 24 21 19 17 16 17 18 21 27
13 17 21 16 12 8 12 14 15 11 14 13 14 14 15 12 14 14 13 13 13 14 20 18 14 13 14 13 11 18 21 22 24 26 25 23 22 20
16 16 11 9 10 9 12 14 15 15 16 15 16 18 19 21 21 20 19 19 17 16 15 14 12 17 20 19 19 19 18 18 19 24 28 28 27 23
13 11 13 9 8 7 9 11 12 12 13 12 13 14 14 16 17 17 19 21 19 18 21 19 20 19 21 19 21 22 22 16 18 22 25 26 24 23
14 13 7 12 14 13 13 11 11 14 15 13 13 15 16 17 18 19 19 20 17 17 19 23 26 26 24 21 21 20 21 23 22 23 22 25 25 25
8 9 11 11 9 10 11 12 10 9 12 10 10 11 12 14 17 18 18 18 17 18 18 20 23 24 26 28 20 18 21 22 22 20 20 19 21 22
8 4 4 5 7 7 10 11 13 13 13 14 15 14 15 16 17 17 18 19 18 19 20 23 23 20 10 10 22 25 25 28 28 28 24 25 23 27
6 7 7 9 9 10 11 11 10 10 11 12 13 14 16 17 17 17 17 18 19 21 21 20 18 17 15 12 22 32 29 30 25 25 27 29 25 25
7 8 7 7 8 9 9 10 11 11 11 9 10 12 14 16 17 17 18 19 22 21 21 19 20 28 26 29 22 30 34 30 34 30 28 27 26 24
7 7 8 9 9 9 7 9 11 12 10 11 10 11 13 15 16 18 18 18 17 20 23 26 29 26 23 23 23 29 32 34 33 38 35 31 30 10
6 6 7 10 11 9 7 10 12 12 12 12 9 10 15 18 19 19 19 18 19 22 22 23 27 28 28 26 28 29 30 32 34 32 32 34 35 37